This is the latest recevied weather packets stored in our database for station/object N5KJT. If no packets are shown the sender has not sent any weather packets the latest 10 day(s).
| Time | Temp. | Humidity | Pressure | Rain* | Wind** | Luminosity | Snow |
|---|---|---|---|---|---|---|---|
| 1787869516 | 27.78° C | 34% | 1026.1 hPa | 0 mm | - | 233 W/m² | - |
| 1787869216 | 27.78° C | 29% | 1026.1 hPa | 0 mm | - | 158 W/m² | - |
| 1787868917 | 27.78° C | 30% | 1026.2 hPa | 0 mm | - | 121 W/m² | - |
| 1787868616 | 27.78° C | 31% | 1026.1 hPa | 0 mm | - | 104 W/m² | - |
| 1787868317 | 27.78° C | 31% | 1026.1 hPa | 0 mm | - | 107 W/m² | - |
| 1787868016 | 28.33° C | 31% | 1026.2 hPa | 0 mm | - | 127 W/m² | - |
| 1787867716 | 28.89° C | 31% | 1026 hPa | 0 mm | - | 158 W/m² | - |
| 1787867416 | 28.89° C | 29% | 1025.8 hPa | 0 mm | - | 188 W/m² | - |
| 1787867116 | 28.89° C | 30% | 1025.5 hPa | 0 mm | - | 231 W/m² | - |
| 1787866816 | 28.89° C | 30% | 1025.5 hPa | 0 mm | - | 337 W/m² | - |
| 1787866516 | 29.44° C | 28% | 1025.6 hPa | 0 mm | - | 289 W/m² | - |
| 1787866217 | 30° C | 27% | 1025.6 hPa | 0 mm | - | 249 W/m² | - |
| 1787865916 | 30.56° C | 27% | 1025.6 hPa | 0 mm | - | 267 W/m² | - |
| 1787865616 | 31.11° C | 25% | 1025.6 hPa | 0 mm | - | 270 W/m² | - |
| 1787865316 | 31.11° C | 24% | 1025.4 hPa | 0 mm | - | 229 W/m² | - |
| 1787865016 | 31.67° C | 23% | 1025.4 hPa | 0 mm | - | 201 W/m² | - |
| 1787864716 | 31.67° C | 23% | 1025.5 hPa | 0 mm | - | 184 W/m² | - |
| 1787864416 | 31.67° C | 22% | 1025.5 hPa | 0 mm | - | 192 W/m² | - |
| 1787864116 | 31.67° C | 23% | 1025.6 hPa | 0 mm | - | 224 W/m² | - |
| 1787863816 | 31.67° C | 23% | 1025.7 hPa | 0 mm | - | 605 W/m² | - |
| 1787863516 | 32.22° C | 22% | 1025.8 hPa | 0 mm | - | 309 W/m² | - |
| 1787863217 | 32.78° C | 22% | 1025.8 hPa | 0 mm | - | 603 W/m² | - |
| 1787862916 | 32.78° C | 22% | 1025.8 hPa | 0 mm | - | 1279 W/m² | - |
| 1787862616 | 32.78° C | 23% | 1025.9 hPa | 0 mm | - | 1245 W/m² | - |
| 1787862317 | 32.78° C | 24% | 1026 hPa | 0 mm | - | 1214 W/m² | - |
* Rain latest hour (hover to see other rain measurements)
** Current wind speed in m/s (hover to see current wind gust speed)